Weather Roundup
Issued by NWS Chicago, IL

Home | Current Version | Previous Version | Graphics & Text | Print | Product List | Glossary On
Versions: 1 2 3 4 5 6 7 8 9 10 11 12 13 14 15 16 17 18 19 20 21 22 23 24 25 26 27 28 29 30 31 32 33 34 35 36 37 38 39 40 41 42 43 44 45 46 47 48 49 50
000
NZUS59 KLOT 031208
HRRLOT

CHICAGO AREA WEATHER ROUNDUP
NATIONAL WEATHER SERVICE CHICAGO/ROMEOVILLE IL
700 AM CDT SUN MAY 03 2015

NOTE: "FAIR" INDICATES FEW OR NO CLOUDS BELOW 12,000 FEET WITH NO
SIGNIFICANT WEATHER AND/OR OBSTRUCTIONS TO VISIBILITY.

* THESE STATIONS ARE NOT UNDER NWS QUALITY CONTROL. THEY ALSO MAY NOT
  REPORT WEATHER SUCH AS PRECIPITATION OR FOG.

ILZ005-006-012>014-019>023-031300-
NORTHEAST ILLINOIS

CITY           SKY/WX    TMP DP  RH WIND       PRES   REMARKS
OHARE          PTSUNNY   57  45  64 S3        29.97S
6HR MIN TEMP:  55; 6HR MAX TEMP:  62; 6HR PCP: TRACE;

MIDWAY         PTSUNNY   61  45  55 S8        29.99S
6HR MIN TEMP:  60; 6HR MAX TEMP:  63; 6HR PCP: TRACE;

AURORA         PTSUNNY   58  46  64 SE7       29.98R
6HR MIN TEMP:  51; 6HR MAX TEMP:  58;

LANSING*       CLOUDY    58  44  60 S3        30.01S
JOLIET*        PTSUNNY   60  48  65 SE5       29.99R
WAUKEGAN       PTSUNNY   57  44  62 S8        29.97R
6HR MIN TEMP:  54; 6HR MAX TEMP:  58;

DUPAGE AIRPORT MOSUNNY   56  46  69 S6        29.97R
6HR MIN TEMP:  51; 6HR MAX TEMP:  56;

WHEELING       PTSUNNY   55  45  68 S5        29.99S
6HR MIN TEMP:  53; 6HR MAX TEMP:  60; 6HR PCP: TRACE;

KANKAKEE*      MOSUNNY   59  46  63 S7        30.02R
MORRIS*        CLOUDY    59  45  61 S8        29.96R
LEWIS AIRPORT* MOSUNNY   56  45  66 S8        29.99S
NORTHERLY IS     N/A     61  44  53 S7          N/A
$$

WIZ051-052-058>065-066-070>072-031300-
SOUTHEAST WISCONSIN

CITY           SKY/WX    TMP DP  RH WIND       PRES   REMARKS
MILWAUKEE      PTSUNNY   59  42  53 S6        29.94S
6HR MIN TEMP:  58; 6HR MAX TEMP:  60;

KENOSHA*       MOSUNNY   59  43  55 S6        29.96R
RACINE*        PTSUNNY   59  42  53 S5        29.97R
BURLINGTON     PTSUNNY   55  43  64 CALM      29.95S
WAUKESHA       PTSUNNY   55  43  62 S5        29.95S
WEST BEND      MOSUNNY   59  46  63 S5        29.93R
$$

INZ001>003-010>013-019-020-031300-
NORTHWEST INDIANA

CITY           SKY/WX    TMP DP  RH WIND       PRES   REMARKS
GARY*          PTSUNNY   61 N/A N/A S7        30.01S
MICHIGAN CITY* NOT AVBL
RENSSELAER*    NOT AVBL
VALPARAISO     PTSUNNY   57  43  59 S5        30.03R
$$

LMZ740>746-031300-
SOUTHERN LAKE MICHIGAN

STATION/POSITION TIME  SKY/WX   TEMP WIND        PRES    VSBY
                                AIR  DIR/SP/G
                 (UTC)          (F)  (DEG/KT/KT) (MB)    (MI)
HARRISON CRIB    1100            61  190/ 15/ 17   N/A
BURNHAM HARBOR   1200            61  190/  9/ 10   N/A
CALUMET HARBOR   1100            61  200/  8/ 11   N/A
BURNS HARBOR     1100            61  190/ 12/ 16 1016.6R
MICHIGAN CITY    1100            60  160/ 11/ 16   N/A
$$

ABBREVIATIONS USED IN REMARKS
   TC - TEMPERATURE IN CELSIUS
  WCI - WIND CHILL INDEX
   HX - HEAT INDEX
  VSB - VISIBILITY
$$



USA.gov is the U.S. government's official web portal to all federal, state and local government web resources and services.